Wadesboro, NC

9:02 PM EST on February 20, 2017 (GMT -0500)
Anson County

Weather History for KAFP - February, 2013

Change the Weather History Date:

Tuesday, February 5, 2013

  Actual Average (KCLT) Record (KCLT)
Temperature  
Mean Temperature 48 °F -  
Max Temperature 67 °F 50 °F 78 °F (1890)
Min Temperature 30 °F 31 °F 6 °F (1886)
Degree Days  
Heating Degree Days 17    
Moisture  
Dew Point 34 °F    
Average Humidity 58    
Maximum Humidity 92    
Minimum Humidity 28    
Precipitation  
Precipitation 0.00 in - - ()
Sea Level Pressure  
Sea Level Pressure 29.96 in    
Wind  
Wind Speed 3 mph (SSW)    
Max Wind Speed 14 mph    
Max Gust Speed 22 mph    
Visibility 10 miles    
Events      
Averages and records for this station are not official NWS values.
T = Trace of Precipitation, MM = Missing Value Source: NWS Daily Summary

Daily Weather History Graph

Daily Weather History Graph

Search for Another Location

Airport or City:

Trip Planner

Search our weather history database for the weather conditions in past years. The results will help you decide how hot, cold, wet, or windy it might be!

Date:

Astronomy

Feb. 05, 2013 Rise Set
Actual Time 7:15 AM EST 5:53 PM EST
Civil Twilight 6:49 AM EST 6:19 PM EST
Nautical Twilight 6:19 AM EST 6:49 PM EST
Astronomical Twilight 5:49 AM EST 7:19 PM EST
Moon 2:51 AM EST (2/5) 1:13 PM EST (2/5)
Length of Visible Light 11h 30m
Length of Day
10h 37m
Waning Crescent, 27% of the Moon is Illuminated
Feb 5
Waning Crescent
Feb 10
New
Feb 17
First Quarter
Feb 25
Full
Mar 4
Last Quarter

Hourly Weather History & Observations

Time (EST) Temp. Windchill Dew Point Humidity Pressure Visibility Wind Dir Wind Speed Gust Speed Precip Events Conditions
12:15 AM 43.2 °F - 27.5 °F 54% 30.03 in 10.0 mi Calm Calm - N/A   Clear
12:35 AM 42.8 °F - 27.5 °F 55% 30.02 in 10.0 mi Calm Calm - N/A   Clear
12:55 AM 42.4 °F 40.7 °F 27.5 °F 56% 30.01 in 10.0 mi South 3.5 mph - N/A   Clear
1:15 AM 42.4 °F - 27.5 °F 56% 30.00 in 10.0 mi Calm Calm - N/A   Clear
1:35 AM 42.1 °F 40.2 °F 27.5 °F 56% 30.00 in 10.0 mi SSW 3.5 mph - N/A   Clear
1:55 AM 41.9 °F - 27.5 °F 57% 29.99 in 10.0 mi Calm Calm - N/A   Clear
2:15 AM 40.6 °F - 27.5 °F 59% 29.98 in 10.0 mi Calm Calm - N/A   Clear
2:35 AM 39.4 °F 36.1 °F 28.2 °F 64% 29.98 in 10.0 mi SSW 4.6 mph - N/A   Clear
2:55 AM 38.7 °F - 28.0 °F 66% 29.97 in 10.0 mi Calm Calm - N/A   Clear
3:15 AM 38.3 °F - 28.4 °F 68% 29.96 in 10.0 mi Calm Calm - N/A   Clear
3:35 AM 37.9 °F - 29.1 °F 71% 29.96 in 10.0 mi Calm Calm - N/A   Scattered Clouds
3:55 AM 39.9 °F 37.8 °F 29.3 °F 66% 29.96 in 10.0 mi South 3.5 mph - N/A   Clear
4:15 AM 40.8 °F 38.8 °F 28.9 °F 63% 29.96 in 10.0 mi South 3.5 mph - N/A   Clear
4:35 AM 41.2 °F 39.2 °F 28.9 °F 62% 29.96 in 10.0 mi South 3.5 mph - N/A   Clear
4:55 AM 40.6 °F - 28.4 °F 62% 29.96 in 10.0 mi Calm Calm - N/A   Scattered Clouds
5:15 AM 38.5 °F - 28.0 °F 66% 29.96 in 10.0 mi Calm Calm - N/A   Scattered Clouds
5:35 AM 34.0 °F - 28.9 °F 82% 29.97 in 10.0 mi Calm Calm - N/A   Clear
5:55 AM 32.9 °F - 27.9 °F 82% 29.97 in 10.0 mi Calm Calm - N/A   Clear
6:15 AM 32.9 °F - 28.4 °F 84% 29.98 in 10.0 mi Calm Calm - N/A   Clear
6:35 AM 31.3 °F - 26.2 °F 82% 29.99 in 10.0 mi Calm Calm - N/A   Clear
6:55 AM 30.7 °F - 27.3 °F 87% 30.00 in 10.0 mi Calm Calm - N/A   Scattered Clouds
7:15 AM 30.0 °F - 27.0 °F 88% 30.00 in 10.0 mi Calm Calm - N/A   Mostly Cloudy
7:35 AM 30.2 °F - 27.0 °F 88% 29.99 in 10.0 mi Calm Calm - N/A   Scattered Clouds
7:55 AM 32.0 °F - 29.1 °F 89% 29.99 in 10.0 mi Calm Calm - N/A   Scattered Clouds
8:15 AM 35.4 °F - 31.5 °F 85% 30.00 in 10.0 mi Calm Calm - N/A   Scattered Clouds
8:35 AM 36.9 °F - 31.6 °F 81% 30.02 in 10.0 mi Calm Calm - N/A   Scattered Clouds
8:55 AM 41.5 °F 38.6 °F 31.3 °F 67% 30.02 in 10.0 mi South 4.6 mph - N/A   Scattered Clouds
9:15 AM 44.2 °F 40.3 °F 30.2 °F 58% 30.02 in 10.0 mi SSW 6.9 mph - N/A   Clear
9:35 AM 46.8 °F - 30.0 °F 52% 30.01 in 10.0 mi SSW 8.1 mph - N/A   Scattered Clouds
9:55 AM 47.7 °F - 30.2 °F 51% 30.01 in 10.0 mi SW 6.9 mph - N/A   Scattered Clouds
10:15 AM 49.8 °F - 30.6 °F 48% 30.00 in 10.0 mi SW 3.5 mph - N/A   Scattered Clouds
10:35 AM 51.8 °F - 31.1 °F 45% 30.00 in 10.0 mi WSW 5.8 mph - N/A   Clear
10:55 AM 54.1 °F - 30.7 °F 41% 30.00 in 10.0 mi WSW 9.2 mph - N/A   Clear
11:15 AM 55.8 °F - 31.1 °F 39% 29.99 in 10.0 mi SW 4.6 mph - N/A   Scattered Clouds
11:35 AM 57.7 °F - 30.7 °F 36% 29.97 in 10.0 mi SW 8.1 mph - N/A   Scattered Clouds
11:55 AM 59.5 °F - 30.7 °F 34% 29.97 in 10.0 mi SSW 4.6 mph - N/A   Clear
12:15 PM 62.2 °F - 29.1 °F 29% 29.96 in 10.0 mi SSW 8.1 mph - N/A   Mostly Cloudy
12:35 PM 61.7 °F - 28.2 °F 28% 29.95 in 10.0 mi SSW 9.2 mph - N/A   Overcast
12:55 PM 62.8 °F - 29.1 °F 28% 29.93 in 10.0 mi WSW 8.1 mph 17.3 mph N/A   Overcast
1:15 PM 62.2 °F - 29.7 °F 29% 29.93 in 10.0 mi SW 13.8 mph 19.6 mph N/A   Overcast
1:35 PM 62.4 °F - 30.2 °F 30% 29.92 in 10.0 mi SW 12.7 mph 20.7 mph N/A   Mostly Cloudy
1:55 PM 63.7 °F - 31.1 °F 29% 29.91 in 10.0 mi WSW 8.1 mph - N/A   Mostly Cloudy
2:15 PM 63.9 °F - 33.3 °F 32% 29.90 in 10.0 mi SW 8.1 mph - N/A   Mostly Cloudy
2:35 PM 65.3 °F - 33.8 °F 31% 29.90 in 10.0 mi SW 8.1 mph 17.3 mph N/A   Scattered Clouds
2:55 PM 64.8 °F - 34.9 °F 33% 29.89 in 10.0 mi WSW 6.9 mph - N/A   Scattered Clouds
3:15 PM 65.5 °F - 36.1 °F 34% 29.89 in 10.0 mi SW 5.8 mph 20.7 mph N/A   Overcast
3:35 PM 65.5 °F - 37.0 °F 35% 29.88 in 10.0 mi SSW 8.1 mph 21.9 mph N/A   Scattered Clouds
3:55 PM 65.3 °F - 38.7 °F 38% 29.89 in 10.0 mi SW 9.2 mph 17.3 mph N/A   Scattered Clouds
4:15 PM 66.2 °F - 39.6 °F 38% 29.89 in 10.0 mi SSW 9.2 mph 16.1 mph N/A   Mostly Cloudy
4:35 PM 64.9 °F - 40.1 °F 40% 29.89 in 10.0 mi SSW 9.2 mph - N/A   Mostly Cloudy
4:55 PM 64.8 °F - 40.1 °F 40% 29.90 in 10.0 mi WSW 6.9 mph - N/A   Mostly Cloudy
5:15 PM 63.1 °F - 40.8 °F 44% 29.90 in 10.0 mi SW 5.8 mph - N/A   Scattered Clouds
5:35 PM 62.4 °F - 41.2 °F 46% 29.89 in 10.0 mi SSW 4.6 mph - N/A   Scattered Clouds
5:55 PM 60.8 °F - 41.5 °F 49% 29.90 in 10.0 mi SSW 4.6 mph - N/A   Clear
6:15 PM 60.1 °F - 41.7 °F 51% 29.90 in 10.0 mi SSW 3.5 mph - N/A   Clear
6:35 PM 58.8 °F - 42.1 °F 54% 29.91 in 10.0 mi SSW 4.6 mph - N/A   Clear
6:55 PM 57.0 °F - 42.3 °F 58% 29.92 in 10.0 mi SW 4.6 mph - N/A   Clear
7:15 PM 56.5 °F - 42.4 °F 59% 29.93 in 10.0 mi SSW 3.5 mph - N/A   Clear
7:35 PM 56.1 °F - 42.4 °F 60% 29.93 in 10.0 mi SSW 3.5 mph - N/A   Clear
7:55 PM 55.0 °F - 42.6 °F 63% 29.95 in 10.0 mi South 3.5 mph - N/A   Clear
8:15 PM 54.5 °F - 42.8 °F 65% 29.95 in 10.0 mi SSW 4.6 mph - N/A   Clear
8:35 PM 53.8 °F - 42.8 °F 66% 29.95 in 10.0 mi SW 3.5 mph - N/A   Clear
8:55 PM 53.4 °F - 43.0 °F 68% 29.96 in 10.0 mi Calm Calm - N/A   Clear
9:15 PM 53.4 °F - 43.2 °F 68% 29.96 in 10.0 mi Calm Calm - N/A   Clear
9:35 PM 52.7 °F - 43.2 °F 70% 29.97 in 10.0 mi Calm Calm - N/A   Clear
9:55 PM 51.8 °F - 43.2 °F 72% 29.98 in 10.0 mi Calm Calm - N/A   Clear
10:15 PM 49.6 °F - 42.8 °F 77% 29.98 in 10.0 mi Calm Calm - N/A   Clear
10:35 PM 46.4 °F - 42.3 °F 85% 29.99 in 10.0 mi Calm Calm - N/A   Clear
10:55 PM 45.7 °F - 41.5 °F 85% 29.99 in 10.0 mi Calm Calm - N/A   Clear
11:15 PM 42.6 °F - 39.7 °F 90% 30.00 in 10.0 mi Calm Calm - N/A   Clear
11:35 PM 41.7 °F - 39.2 °F 91% 29.99 in 10.0 mi Calm Calm - N/A   Clear
11:55 PM 40.5 °F - 38.3 °F 92% 29.99 in 10.0 mi Calm Calm - N/A   Clear